Kezdőlap
METAR-TAF:

METAR-TAF

Repülőterek :

Fort Madison Municipal Airport

Fort Madison, Iowa, Amerikai Egyesült Államok

földrajzi szélesség: 40-40N, földrajzi hosszúság: 091-20W, magasság: 221 m

Jelenlegi meteorológiai megfigyelések

A jelentés 15 perccel ezelõtt készült, 17:35 UTC
Délkeleti szél 6 kt
Hőmérséklet 4°C
Páratartalom 65%
Légköri nyomás 1023 hPa
Látótávolság: 16.1 km

METAR: KFSW 081735Z AUTO 14006KT 10SM 04/M02 A3021 RMK AO2

Idő: 11:50 (17:50 UTC)


TAF: hiányzik

Meteorológiai megfigyelések és előrejelzések több, mint 4000 repülőtéren (METAR és TAF jelentéseket).

A térképen piros és sárga pontok jelzik az elérhető meteorológiai állomásokat.

Mozgassa az egeret a pont fölött, hogy megjelenjen az állomás neve.

Azután kattintson az időjárási megfigyelések és előrejelzések megtekintéséhez.

A térkép megváltoztatása: kattintson a fekete keresztel jelölt zöld gombra ráközelítéshez, a vonallal jelölt zöld gombra távolításhoz, vagy a zöld nyilakra a szomszédos térképek eléréséhez.


METAR-TAF: